Regional Weather Roundup
Issued by NWS Albany, NY

Home | Current Version | Previous Version | Graphics & Text | Print | Product List | Glossary Off
Versions: 1 2 3 4 5 6 7 8 9 10 11 12 13 14 15 16 17 18 19 20 21 22 23 24 25 26 27 28 29 30 31 32 33 34 35 36 37 38 39 40 41 42 43 44 45 46 47 48 49 50

000
ASUS41 KALY 140810
RWRALY

NEW YORK STATE HOURLY WEATHER ROUNDUP
NATIONAL WEATHER SERVICE ALBANY NY
300 AM EST SUN FEB 14 2016

NOTE: "FAIR" INDICATES FEW OR NO CLOUDS BELOW 12,000 FEET WITH NO
SIGNIFICANT WEATHER AND/OR NO OBSTRUCTIONS TO VISIBILITY.

NYZ032-033-038>043-046>054-057>066-NYZ062>081-140900-
EAST


CITY           SKY/WX    TMP DP  RH WIND       PRES   REMARKS
ALBANY         CLEAR    -11 -27  45 NW14      30.40R WCI -33
GLENS FALLS    CLEAR    -13 -29  44 N8        30.39R WCI -30
POUGHKEEPSIE   CLEAR      1 -19  38 NW9       30.36R WCI -14
NEWBURGH       CLEAR     -4 -17  54 NW12G25   30.33R WCI -22
MONTGOMERY     CLEAR     -2 -19  44 NW13G25   30.34R WCI -20
WHITE PLAINS   PTCLDY     0 -14  51 NW16G25   30.29R WCI -20
ISLIP          CLEAR      4 -12  48 NW21G28   30.31R WCI -17
NEW YORK CITY  PTCLDY     7  -7  52 NW23G30   30.35R WCI -14
CENTRAL PARK   CLEAR      5 -14  41 VRB7G22   30.36R WCI  -7
$$

NYZ005>009-017-018-044>046-055-056-140900-
CENTRAL


CITY           SKY/WX    TMP DP  RH WIND       PRES   REMARKS
FULTON         LGT SNOW -12 -19  71 SE3       30.48R VSB 1
SYRACUSE       FLURRIES -16 -23  70 CALM      30.48R
ROME           CLOUDY   -20 -28  67 NW5       30.47R WCI -33
ELMIRA         MOCLDY    -3 -14  59 VRB3      30.38R
BINGHAMTON     CLOUDY   -12 -17  78 N7        30.24R WCI -27
MONTICELLO     CLEAR     -9 -18  64 NW18G26   30.23R WCI -33
$$

NYZ026>034-041>043-140900-
NORTH


CITY           SKY/WX    TMP DP  RH WIND       PRES   REMARKS
WATERTOWN      CLOUDY   -34  32 100 CALM      30.50R
FORT DRUM      NOT AVBL
MASSENA        CLEAR    -17 -27  60 W10       30.47R WCI -37
SARANAC LAKE   CLEAR    -27 -32  77 SW6       30.19R WCI -44
PLATTSBURGH    CLEAR    -16 -29  52 VRB6      30.40R WCI -31
$$

NYZ001>004-010>016-019>021-140900-
WEST


CITY           SKY/WX    TMP DP  RH WIND       PRES   REMARKS
NIAGARA FALLS  LGT SNOW  -4 -11  72 CALM      30.49R
BUFFALO        PTCLDY    -7 -13  75 NE5       30.46F WCI -18
DUNKIRK        LGT SNOW   2  -4  76 E13       30.45S WCI -15
JAMESTOWN      CLOUDY     0  -6  78 N5        30.28S WCI -10
WELLSVILLE     CLEAR     -9 -14  78 NW7       30.25R WCI -24
ROCHESTER      LGT SNOW  -6 -11  79 NW5       30.48R WCI -17
PENN YAN       LGT SNOW  -5 -11  75 NW8       30.40R WCI -20
$$

             KEY
       WCI = WIND CHILL INDEX
       VSB = VISIBILITY
       HX  = HEAT INDEX
$$



USA.gov is the U.S. government's official web portal to all federal, state and local government web resources and services.